TAM3635 SBPS-SBCF

Flight info

Callsign TAM3635
Flight time 0h 57m
Altitude 30000
Route EDRAG DCT DORDU DCT OPTEB
Aircraft A320/M-SDE3FGHIRWY/LB1

Departure

Time 2026-04-21 19:17
Airport Porto Seguro International Airport (SBPS)

Arrival

Time 2026-04-21 20:14
Airport Tancredo Neves International Airport (SBCF)
Time Latitude Longitude Altitude Speed Heading
2026-04-21 18:47 -16.44092 -39.08197 173 ft 0 kts 179°
2026-04-21 19:08 -16.44078 -39.08197 173 ft 4 kts 182°
2026-04-21 19:08 -16.44051 -39.08193 173 ft 4 kts 199°
2026-04-21 19:09 -16.44038 -39.08188 173 ft 1 kts 204°
2026-04-21 19:09 -16.44037 -39.08187 173 ft 0 kts 204°
2026-04-21 19:11 -16.44041 -39.08190 173 ft 3 kts 213°
2026-04-21 19:11 -16.44046 -39.08215 173 ft 6 kts 255°
2026-04-21 19:12 -16.44056 -39.08258 173 ft 5 kts 260°
2026-04-21 19:12 -16.44042 -39.08287 174 ft 5 kts 316°
2026-04-21 19:12 -16.44003 -39.08304 174 ft 7 kts 344°
2026-04-21 19:12 -16.43935 -39.08332 173 ft 14 kts 315°
2026-04-21 19:13 -16.43938 -39.08419 173 ft 11 kts 254°
2026-04-21 19:13 -16.43958 -39.08489 174 ft 9 kts 254°
2026-04-21 19:13 -16.43976 -39.08556 175 ft 11 kts 254°
2026-04-21 19:13 -16.43998 -39.08635 176 ft 11 kts 254°
2026-04-21 19:14 -16.44017 -39.08706 177 ft 9 kts 254°
2026-04-21 19:14 -16.44032 -39.08761 178 ft 7 kts 254°
2026-04-21 19:14 -16.44049 -39.08822 179 ft 11 kts 254°
2026-04-21 19:14 -16.44069 -39.08905 181 ft 12 kts 265°
2026-04-21 19:15 -16.44055 -39.08988 181 ft 9 kts 249°
2026-04-21 19:15 -16.44090 -39.08972 181 ft 9 kts 95°
2026-04-21 19:15 -16.44082 -39.08941 181 ft 0 kts 75°
2026-04-21 19:16 -16.44021 -39.08715 177 ft 73 kts 74°
2026-04-21 19:16 -16.43819 -39.07974 170 ft 136 kts 74°
2026-04-21 19:16 -16.43524 -39.06911 538 ft 155 kts 78°
2026-04-21 19:17 -16.42936 -39.04750 1698 ft 164 kts 80°
2026-04-21 19:17 -16.42613 -39.03524 1936 ft 186 kts 79°
2026-04-21 19:17 -16.42360 -39.02131 2163 ft 206 kts 98°
2026-04-21 19:18 -16.42998 -39.00765 2452 ft 225 kts 140°
2026-04-21 19:18 -16.44494 -39.00113 2865 ft 248 kts 173°
2026-04-21 19:18 -16.46256 -39.00162 3620 ft 258 kts 185°
2026-04-21 19:18 -16.48042 -39.00451 4479 ft 261 kts 188°
2026-04-21 19:19 -16.49843 -39.00788 5316 ft 266 kts 189°
2026-04-21 19:19 -16.51690 -39.01113 6110 ft 272 kts 187°
2026-04-21 19:19 -16.53572 -39.01402 6892 ft 276 kts 186°
2026-04-21 19:19 -16.55493 -39.01659 7686 ft 279 kts 185°
2026-04-21 19:20 -16.57438 -39.01890 8456 ft 284 kts 185°
2026-04-21 19:20 -16.59419 -39.02113 9239 ft 288 kts 185°
2026-04-21 19:20 -16.61394 -39.02541 9982 ft 294 kts 200°
2026-04-21 19:20 -16.63191 -39.03578 10627 ft 301 kts 218°
2026-04-21 19:21 -16.64695 -39.05198 10840 ft 324 kts 231°
2026-04-21 19:21 -16.66146 -39.07094 11126 ft 342 kts 231°
2026-04-21 19:21 -16.67637 -39.09059 11709 ft 348 kts 232°
2026-04-21 19:21 -16.69150 -39.11054 12361 ft 352 kts 232°
2026-04-21 19:22 -16.70682 -39.13065 13039 ft 356 kts 232°
2026-04-21 19:22 -16.72235 -39.15094 13686 ft 359 kts 232°
2026-04-21 19:22 -16.73807 -39.17139 14269 ft 363 kts 232°
2026-04-21 19:22 -16.75393 -39.19199 14842 ft 366 kts 232°
2026-04-21 19:23 -16.76994 -39.21278 15396 ft 369 kts 231°
2026-04-21 19:23 -16.78604 -39.23369 15963 ft 372 kts 231°
2026-04-21 19:23 -16.80226 -39.25485 16531 ft 375 kts 231°
2026-04-21 19:23 -16.81863 -39.27618 17076 ft 377 kts 231°
2026-04-21 19:24 -16.83512 -39.29765 17635 ft 380 kts 231°
2026-04-21 19:24 -16.85172 -39.31929 18150 ft 384 kts 231°
2026-04-21 19:24 -16.86705 -39.34216 18619 ft 387 kts 240°
2026-04-21 19:24 -16.87801 -39.36795 19065 ft 391 kts 250°
2026-04-21 19:25 -16.88430 -39.39570 19498 ft 395 kts 257°
2026-04-21 19:25 -16.88946 -39.42362 19923 ft 398 kts 257°
2026-04-21 19:25 -16.89479 -39.45210 20341 ft 402 kts 257°
2026-04-21 19:25 -16.90023 -39.48087 20734 ft 405 kts 257°
2026-04-21 19:26 -16.90572 -39.50983 21135 ft 408 kts 257°
2026-04-21 19:26 -16.91125 -39.53899 21539 ft 411 kts 257°
2026-04-21 19:26 -16.91682 -39.56838 21941 ft 414 kts 256°
2026-04-21 19:26 -16.92243 -39.59797 22345 ft 417 kts 256°
2026-04-21 19:27 -16.92807 -39.62779 22739 ft 420 kts 256°
2026-04-21 19:27 -16.93373 -39.65779 23120 ft 423 kts 256°
2026-04-21 19:27 -16.93944 -39.68799 23490 ft 425 kts 256°
2026-04-21 19:27 -16.94519 -39.71840 23830 ft 428 kts 256°
2026-04-21 19:28 -16.95093 -39.74900 24163 ft 430 kts 256°
2026-04-21 19:28 -16.95665 -39.77972 24506 ft 432 kts 256°
2026-04-21 19:28 -16.96240 -39.81054 24847 ft 433 kts 256°
2026-04-21 19:28 -16.96817 -39.84151 25184 ft 435 kts 256°
2026-04-21 19:29 -16.97392 -39.87256 25519 ft 436 kts 256°
2026-04-21 19:29 -16.97972 -39.90373 25845 ft 438 kts 256°
2026-04-21 19:29 -16.98609 -39.93487 26173 ft 439 kts 254°
2026-04-21 19:29 -16.99323 -39.96589 26501 ft 440 kts 253°
2026-04-21 19:30 -17.00087 -39.99689 26824 ft 441 kts 252°
2026-04-21 19:30 -17.00869 -40.02790 27150 ft 443 kts 252°
2026-04-21 19:30 -17.01648 -40.05907 27459 ft 444 kts 252°
2026-04-21 19:30 -17.02413 -40.09042 27778 ft 446 kts 253°
2026-04-21 19:31 -17.03160 -40.12185 28109 ft 447 kts 253°
2026-04-21 19:31 -17.03900 -40.15343 28432 ft 448 kts 253°
2026-04-21 19:31 -17.04640 -40.18517 28739 ft 450 kts 253°
2026-04-21 19:31 -17.05381 -40.21693 29047 ft 451 kts 253°
2026-04-21 19:32 -17.06127 -40.24887 29341 ft 453 kts 253°
2026-04-21 19:32 -17.06878 -40.28084 29632 ft 454 kts 253°
2026-04-21 19:32 -17.07627 -40.31251 29900 ft 456 kts 253°
2026-04-21 19:32 -17.08385 -40.34463 30019 ft 452 kts 253°
2026-04-21 19:33 -17.09834 -40.40680 30035 ft 434 kts 253°
2026-04-21 19:33 -17.11260 -40.46780 30034 ft 431 kts 253°
2026-04-21 19:34 -17.12688 -40.52866 30030 ft 431 kts 253°
2026-04-21 19:34 -17.14108 -40.58956 30027 ft 431 kts 253°
2026-04-21 19:35 -17.16239 -40.68088 30027 ft 431 kts 253°
2026-04-21 19:36 -17.17654 -40.74169 30024 ft 430 kts 253°
2026-04-21 19:36 -17.19077 -40.80249 30019 ft 431 kts 253°
2026-04-21 19:37 -17.20486 -40.86338 30028 ft 431 kts 253°
2026-04-21 19:37 -17.21895 -40.92428 30028 ft 431 kts 253°
2026-04-21 19:38 -17.23305 -40.98514 30023 ft 431 kts 253°
2026-04-21 19:38 -17.24471 -41.03577 30022 ft 431 kts 253°
2026-04-21 19:39 -17.26119 -41.10699 30022 ft 431 kts 253°
2026-04-21 19:39 -17.27526 -41.16791 30021 ft 431 kts 253°
2026-04-21 19:40 -17.28923 -41.22890 30030 ft 431 kts 253°
2026-04-21 19:40 -17.30320 -41.28988 30040 ft 431 kts 253°
2026-04-21 19:41 -17.31720 -41.35077 30038 ft 430 kts 254°
2026-04-21 19:41 -17.33123 -41.41167 30032 ft 430 kts 253°
2026-04-21 19:42 -17.34520 -41.47263 30036 ft 431 kts 254°
2026-04-21 19:42 -17.35909 -41.53363 30045 ft 431 kts 254°
2026-04-21 19:43 -17.37304 -41.59458 30038 ft 430 kts 254°
2026-04-21 19:43 -17.38695 -41.65556 30034 ft 431 kts 254°
2026-04-21 19:44 -17.40071 -41.71615 30040 ft 431 kts 254°
2026-04-21 19:44 -17.41453 -41.77717 30044 ft 431 kts 254°
2026-04-21 19:45 -17.42836 -41.83826 30043 ft 431 kts 254°
2026-04-21 19:45 -17.44218 -41.89931 30045 ft 431 kts 254°
2026-04-21 19:46 -17.45605 -41.96037 30043 ft 431 kts 252°
2026-04-21 19:46 -17.48074 -42.01662 30040 ft 424 kts 232°
2026-04-21 19:47 -17.51868 -42.06375 30041 ft 423 kts 227°
2026-04-21 19:47 -17.55708 -42.11049 30041 ft 424 kts 227°
2026-04-21 19:48 -17.59544 -42.15736 30043 ft 424 kts 227°
2026-04-21 19:48 -17.63387 -42.20425 30037 ft 424 kts 228°
2026-04-21 19:49 -17.67231 -42.25124 30040 ft 425 kts 228°
2026-04-21 19:49 -17.71052 -42.29797 30040 ft 425 kts 228°
2026-04-21 19:50 -17.74280 -42.33732 30036 ft 425 kts 228°
2026-04-21 19:50 -17.78782 -42.39241 30039 ft 425 kts 228°
2026-04-21 19:51 -17.82609 -42.43924 30041 ft 426 kts 228°
2026-04-21 19:51 -17.86464 -42.48641 30043 ft 426 kts 228°
2026-04-21 19:52 -17.90315 -42.53367 30037 ft 426 kts 229°
2026-04-21 19:52 -17.94166 -42.58101 30037 ft 426 kts 228°
2026-04-21 19:53 -17.98018 -42.62834 30040 ft 427 kts 229°
2026-04-21 19:53 -18.01875 -42.67578 30039 ft 427 kts 229°
2026-04-21 19:54 -18.05743 -42.72320 30041 ft 427 kts 229°
2026-04-21 19:54 -18.09602 -42.77073 30041 ft 428 kts 229°
2026-04-21 19:55 -18.13466 -42.81831 30048 ft 428 kts 229°
2026-04-21 19:55 -18.17330 -42.86591 30044 ft 429 kts 229°
2026-04-21 19:56 -18.20550 -42.90558 30043 ft 429 kts 229°
2026-04-21 19:56 -18.24425 -42.95334 30047 ft 430 kts 229°
2026-04-21 19:57 -18.28305 -43.00123 30049 ft 430 kts 229°
2026-04-21 19:57 -18.32181 -43.04913 30049 ft 430 kts 229°
2026-04-21 19:58 -18.36058 -43.09711 30050 ft 430 kts 230°
2026-04-21 19:58 -18.40220 -43.14220 30051 ft 430 kts 217°
2026-04-21 19:59 -18.45009 -43.18010 30045 ft 431 kts 217°
2026-04-21 19:59 -18.49856 -43.21846 30062 ft 445 kts 217°
2026-04-21 20:00 -18.54875 -43.25828 30060 ft 455 kts 217°
2026-04-21 20:00 -18.59941 -43.29848 30063 ft 456 kts 217°
2026-04-21 20:01 -18.65013 -43.33869 30060 ft 456 kts 217°
2026-04-21 20:01 -18.70084 -43.37897 30062 ft 456 kts 217°
2026-04-21 20:02 -18.75143 -43.41932 30061 ft 456 kts 218°
2026-04-21 20:02 -18.80216 -43.45963 30067 ft 456 kts 218°
2026-04-21 20:03 -18.85250 -43.49960 29519 ft 448 kts 217°
2026-04-21 20:03 -18.87719 -43.51925 28941 ft 443 kts 218°
2026-04-21 20:03 -18.90169 -43.53880 28359 ft 439 kts 217°
2026-04-21 20:03 -18.92588 -43.55815 27790 ft 435 kts 217°
2026-04-21 20:04 -18.94988 -43.57740 27230 ft 431 kts 217°
2026-04-21 20:04 -18.97363 -43.59643 26682 ft 427 kts 217°
2026-04-21 20:04 -18.99726 -43.61534 25817 ft 431 kts 217°
2026-04-21 20:04 -19.02150 -43.63464 24672 ft 442 kts 217°
2026-04-21 20:05 -19.04642 -43.65433 23587 ft 451 kts 216°
2026-04-21 20:05 -19.07180 -43.67426 22437 ft 456 kts 216°
2026-04-21 20:05 -19.09725 -43.69421 21654 ft 454 kts 216°
2026-04-21 20:05 -19.12242 -43.71399 20977 ft 449 kts 216°
2026-04-21 20:06 -19.14734 -43.73361 20308 ft 444 kts 216°
2026-04-21 20:06 -19.17200 -43.75301 19669 ft 439 kts 215°
2026-04-21 20:06 -19.19640 -43.77221 19068 ft 434 kts 215°
2026-04-21 20:06 -19.22019 -43.79094 18478 ft 430 kts 215°
2026-04-21 20:07 -19.24430 -43.80997 17816 ft 425 kts 215°
2026-04-21 20:07 -19.26643 -43.82986 17156 ft 422 kts 225°
2026-04-21 20:07 -19.28638 -43.85229 16331 ft 413 kts 225°
2026-04-21 20:07 -19.30593 -43.87421 15190 ft 406 kts 225°
2026-04-21 20:08 -19.32519 -43.89574 14098 ft 400 kts 226°
2026-04-21 20:08 -19.34419 -43.91697 12934 ft 394 kts 226°
2026-04-21 20:08 -19.36283 -43.93785 11808 ft 387 kts 226°
2026-04-21 20:08 -19.38113 -43.95834 10704 ft 380 kts 226°
2026-04-21 20:09 -19.39913 -43.97847 9590 ft 373 kts 226°
2026-04-21 20:09 -19.41684 -43.99831 8396 ft 368 kts 226°
2026-04-21 20:09 -19.43425 -44.01785 7212 ft 363 kts 226°
2026-04-21 20:09 -19.45115 -44.03752 6264 ft 356 kts 227°
2026-04-21 20:10 -19.46676 -44.05640 6069 ft 325 kts 228°
2026-04-21 20:10 -19.48085 -44.07350 6027 ft 291 kts 224°
2026-04-21 20:10 -19.49683 -44.08410 6029 ft 258 kts 191°
2026-04-21 20:10 -19.51372 -44.08331 5741 ft 241 kts 157°
2026-04-21 20:11 -19.52613 -44.07244 5211 ft 228 kts 123°
2026-04-21 20:11 -19.53494 -44.05926 4945 ft 212 kts 137°
2026-04-21 20:11 -19.54570 -44.04958 4714 ft 194 kts 140°
2026-04-21 20:11 -19.55557 -44.04079 4478 ft 176 kts 139°
2026-04-21 20:12 -19.56440 -44.03274 4234 ft 160 kts 139°
2026-04-21 20:12 -19.57258 -44.02522 4032 ft 153 kts 139°
2026-04-21 20:12 -19.58050 -44.01792 3843 ft 149 kts 139°
2026-04-21 20:12 -19.58832 -44.01071 3668 ft 148 kts 138°
2026-04-21 20:13 -19.59608 -44.00354 3496 ft 148 kts 137°
2026-04-21 20:13 -19.60384 -43.99638 3317 ft 148 kts 137°
2026-04-21 20:13 -19.61160 -43.98921 3143 ft 148 kts 137°
2026-04-21 20:13 -19.61942 -43.98198 2944 ft 150 kts 137°
2026-04-21 20:14 -19.62712 -43.97485 2813 ft 138 kts 138°
2026-04-21 20:14 -19.63269 -43.96971 2808 ft 66 kts 138°
2026-04-21 20:14 -19.63549 -43.96686 2808 ft 44 kts 123°
2026-04-21 20:14 -19.63620 -43.96507 2807 ft 17 kts 112°
2026-04-21 20:15 -19.63642 -43.96394 2808 ft 14 kts 76°
2026-04-21 20:15 -19.63564 -43.96331 2809 ft 15 kts 30°
2026-04-21 20:15 -19.63468 -43.96290 2808 ft 15 kts 342°
2026-04-21 20:15 -19.63413 -43.96379 2808 ft 14 kts 297°
2026-04-21 20:16 -19.63357 -43.96461 2808 ft 13 kts 317°
2026-04-21 20:16 -19.63289 -43.96524 2808 ft 12 kts 319°
2026-04-21 20:16 -19.63230 -43.96578 2808 ft 11 kts 319°
2026-04-21 20:16 -19.63170 -43.96633 2808 ft 14 kts 319°
2026-04-21 20:17 -19.63089 -43.96706 2808 ft 16 kts 320°
2026-04-21 20:17 -19.63000 -43.96787 2808 ft 18 kts 319°
2026-04-21 20:17 -19.62911 -43.96869 2808 ft 10 kts 318°
2026-04-21 20:17 -19.62874 -43.96885 2808 ft 4 kts 12°
2026-04-21 20:18 -19.62865 -43.96874 2808 ft 2 kts 61°
2026-04-21 20:18 -19.62841 -43.96840 2808 ft 4 kts 50°
2026-04-21 20:18 -19.62832 -43.96828 2808 ft 1 kts 50°
2026-04-21 20:18 -19.62830 -43.96826 2808 ft 0 kts 50°
2026-04-21 20:26 -19.62840 -43.96838 2808 ft 4 kts 45°
2026-04-21 20:26 -19.62860 -43.96856 2812 ft 4 kts 27°
2026-04-21 20:26 -19.62884 -43.96863 2809 ft 4 kts 344°
2026-04-21 20:26 -19.62896 -43.96857 2811 ft 1 kts 320°
2026-04-21 20:27 -19.62897 -43.96856 2811 ft 0 kts 320°
2026-04-21 20:28 -19.62892 -43.96861 2811 ft 3 kts 320°
2026-04-21 20:29 -19.62864 -43.96885 2811 ft 7 kts 321°
2026-04-21 20:29 -19.62827 -43.96918 2808 ft 8 kts 319°
2026-04-21 20:29 -19.62787 -43.96968 2808 ft 10 kts 288°
2026-04-21 20:29 -19.62789 -43.97042 2808 ft 9 kts 252°
2026-04-21 20:30 -19.62828 -43.97086 2808 ft 7 kts 224°
2026-04-21 20:30 -19.62858 -43.97122 2808 ft 6 kts 232°
2026-04-21 20:30 -19.62879 -43.97150 2809 ft 4 kts 231°
2026-04-21 20:30 -19.62893 -43.97169 2809 ft 2 kts 230°
2026-04-21 20:31 -19.62895 -43.97171 2809 ft 0 kts 230°
2026-04-21 20:32 -19.62900 -43.97177 2809 ft 4 kts 230°
2026-04-21 20:32 -19.62929 -43.97211 2809 ft 8 kts 227°
2026-04-21 20:32 -19.62970 -43.97240 2809 ft 8 kts 178°
2026-04-21 20:33 -19.63124 -43.97103 2808 ft 65 kts 139°
2026-04-21 20:33 -19.63651 -43.96617 2807 ft 132 kts 139°
2026-04-21 20:33 -19.64482 -43.95847 2828 ft 182 kts 139°
2026-04-21 20:33 -19.65441 -43.94965 3523 ft 182 kts 138°
2026-04-21 20:34 -19.66395 -43.94076 4219 ft 184 kts 138°
2026-04-21 20:34 -19.67401 -43.93134 4507 ft 204 kts 138°
2026-04-21 20:34 -19.68525 -43.92081 4713 ft 228 kts 138°
2026-04-21 20:34 -19.69705 -43.90834 4994 ft 252 kts 123°
2026-04-21 20:35 -19.70195 -43.89023 5429 ft 271 kts 86°
2026-04-21 20:35 -19.69676 -43.87084 6156 ft 279 kts 64°
2026-04-21 20:35 -19.68705 -43.85287 6982 ft 283 kts 58°
2026-04-21 20:35 -19.67618 -43.83529 7762 ft 287 kts 57°
2026-04-21 20:36 -19.66540 -43.81729 8565 ft 291 kts 59°
2026-04-21 20:36 -19.65508 -43.79865 9358 ft 295 kts 61°
2026-04-21 20:36 -19.64518 -43.77937 10136 ft 300 kts 63°
2026-04-21 20:36 -19.63540 -43.75923 10530 ft 318 kts 64°
2026-04-21 20:37 -19.62520 -43.73743 10805 ft 339 kts 64°
2026-04-21 20:37 -19.61282 -43.71578 11378 ft 348 kts 53°
2026-04-21 20:37 -19.59754 -43.69567 12065 ft 352 kts 51°
2026-04-21 20:37 -19.58197 -43.67547 12763 ft 355 kts 51°
2026-04-21 20:38 -19.56619 -43.65509 13446 ft 359 kts 51°
2026-04-21 20:38 -19.55021 -43.63460 14076 ft 363 kts 51°
2026-04-21 20:38 -19.53403 -43.61387 14649 ft 366 kts 51°
2026-04-21 20:38 -19.51732 -43.59338 15194 ft 370 kts 46°
2026-04-21 20:39 -19.49737 -43.57588 15735 ft 375 kts 35°
2026-04-21 20:39 -19.47539 -43.56067 16280 ft 379 kts 34°
2026-04-21 20:39 -19.45322 -43.54539 16818 ft 383 kts 34°
2026-04-21 20:39 -19.43077 -43.52995 17342 ft 386 kts 34°
2026-04-21 20:40 -19.40816 -43.51438 17870 ft 390 kts 34°
2026-04-21 20:40 -19.38530 -43.49863 18368 ft 394 kts 35°
2026-04-21 20:40 -19.36226 -43.48275 18810 ft 397 kts 34°
2026-04-21 20:40 -19.33909 -43.46676 19264 ft 398 kts 34°
2026-04-21 20:41 -19.31579 -43.45065 19725 ft 401 kts 34°
2026-04-21 20:41 -19.29271 -43.43403 20203 ft 403 kts 37°
2026-04-21 20:41 -19.27004 -43.41650 20644 ft 405 kts 38°
2026-04-21 20:41 -19.24785 -43.39863 21092 ft 407 kts 38°
2026-04-21 20:42 -19.22543 -43.38029 21522 ft 409 kts 39°
2026-04-21 20:42 -19.20286 -43.36179 21965 ft 411 kts 38°
2026-04-21 20:42 -19.18009 -43.34329 22401 ft 414 kts 38°
2026-04-21 20:42 -19.15712 -43.32485 22835 ft 416 kts 38°
2026-04-21 20:43 -19.13392 -43.30641 23261 ft 418 kts 37°
2026-04-21 20:43 -19.11055 -43.28793 23667 ft 421 kts 37°
2026-04-21 20:43 -19.08706 -43.26942 24011 ft 423 kts 37°
2026-04-21 20:43 -19.06338 -43.25076 24348 ft 425 kts 37°
2026-04-21 20:44 -19.03965 -43.23204 24684 ft 427 kts 37°
2026-04-21 20:44 -19.01576 -43.21318 25027 ft 429 kts 37°
2026-04-21 20:44 -18.99959 -43.20037 25251 ft 431 kts 37°
2026-04-21 20:44 -18.97558 -43.18136 25582 ft 433 kts 37°
2026-04-21 20:45 -18.95172 -43.16246 25910 ft 435 kts 37°
2026-04-21 20:45 -18.92714 -43.14301 26244 ft 437 kts 37°
2026-04-21 20:45 -18.90271 -43.12373 26566 ft 439 kts 37°
2026-04-21 20:45 -18.87820 -43.10434 26887 ft 441 kts 37°
2026-04-21 20:46 -18.85390 -43.08514 27194 ft 443 kts 36°
2026-04-21 20:46 -18.82973 -43.06604 28263 ft 420 kts 36°
2026-04-21 20:46 -18.80712 -43.04816 29768 ft 391 kts 36°
2026-04-21 20:46 -18.78587 -43.03134 30754 ft 377 kts 36°
2026-04-21 20:47 -18.76497 -43.01479 31166 ft 375 kts 36°
2026-04-21 20:47 -18.74401 -42.99822 31402 ft 380 kts 36°
2026-04-21 20:47 -18.72263 -42.98135 31510 ft 387 kts 36°
2026-04-21 20:47 -18.70086 -42.96421 31643 ft 395 kts 36°
2026-04-21 20:48 -18.67865 -42.94672 31761 ft 402 kts 36°
2026-04-21 20:48 -18.65604 -42.92889 31893 ft 409 kts 36°
2026-04-21 20:48 -18.63307 -42.91078 32014 ft 416 kts 36°
2026-04-21 20:48 -18.60968 -42.89232 32136 ft 423 kts 37°
2026-04-21 20:49 -18.58591 -42.87357 32259 ft 430 kts 37°
2026-04-21 20:49 -18.56176 -42.85453 32380 ft 436 kts 37°
2026-04-21 20:49 -18.53728 -42.83525 32503 ft 442 kts 36°
2026-04-21 20:49 -18.51244 -42.81574 32628 ft 448 kts 36°
2026-04-21 20:50 -18.48729 -42.79601 32756 ft 454 kts 36°
2026-04-21 20:50 -18.46173 -42.77598 32880 ft 460 kts 37°
2026-04-21 20:50 -18.43591 -42.75572 33008 ft 466 kts 37°
2026-04-21 20:50 -18.40973 -42.73516 33130 ft 472 kts 37°
2026-04-21 20:51 -18.38334 -42.71443 33255 ft 476 kts 37°
2026-04-21 20:51 -18.35666 -42.69343 33386 ft 481 kts 37°
2026-04-21 20:51 -18.32978 -42.67229 33564 ft 483 kts 37°
2026-04-21 20:51 -18.30278 -42.65110 33831 ft 485 kts 37°
2026-04-21 20:52 -18.27575 -42.62992 34093 ft 486 kts 37°
2026-04-21 20:52 -18.24859 -42.60868 34341 ft 486 kts 37°
2026-04-21 20:52 -18.22147 -42.58747 34583 ft 486 kts 37°
2026-04-21 20:52 -18.19431 -42.56624 34847 ft 486 kts 37°
2026-04-21 20:53 -18.16713 -42.54498 35107 ft 486 kts 37°
2026-04-21 20:53 -18.14002 -42.52377 35349 ft 486 kts 37°
2026-04-21 20:53 -18.11324 -42.50282 35557 ft 487 kts 37°
2026-04-21 20:53 -18.08609 -42.48158 35785 ft 487 kts 37°
2026-04-21 20:54 -18.05887 -42.46032 36010 ft 487 kts 37°
2026-04-21 20:54 -18.03168 -42.43909 36207 ft 487 kts 37°
2026-04-21 20:54 -18.00445 -42.41788 36435 ft 487 kts 37°
2026-04-21 20:54 -17.97724 -42.39667 36657 ft 487 kts 38°
2026-04-21 20:55 -17.95002 -42.37540 36855 ft 487 kts 38°
2026-04-21 20:55 -17.92280 -42.35415 37011 ft 488 kts 37°
2026-04-21 20:55 -17.86837 -42.31173 37054 ft 486 kts 38°
2026-04-21 20:56 -17.81411 -42.26954 37053 ft 486 kts 38°
2026-04-21 20:56 -17.75978 -42.22735 37057 ft 485 kts 38°
2026-04-21 20:57 -17.70554 -42.18523 37061 ft 485 kts 38°
2026-04-21 20:57 -17.65126 -42.14303 37063 ft 486 kts 38°
2026-04-21 20:58 -17.59697 -42.10087 37072 ft 486 kts 38°
2026-04-21 20:58 -17.54262 -42.05872 37071 ft 486 kts 38°
2026-04-21 20:59 -17.48827 -42.01661 37077 ft 486 kts 38°
2026-04-21 20:59 -17.43397 -41.97447 37083 ft 486 kts 38°
2026-04-21 21:00 -17.38006 -41.93265 37082 ft 485 kts 38°
2026-04-21 21:00 -17.32576 -41.89066 37082 ft 485 kts 38°
2026-04-21 21:01 -17.27150 -41.84873 37085 ft 485 kts 38°
2026-04-21 21:01 -17.21726 -41.80685 37079 ft 484 kts 38°
2026-04-21 21:02 -17.16317 -41.76501 37082 ft 483 kts 38°
2026-04-21 21:02 -17.10913 -41.72323 37079 ft 482 kts 38°
2026-04-21 21:03 -17.05515 -41.68164 37084 ft 482 kts 38°
2026-04-21 21:03 -17.00125 -41.64016 37078 ft 481 kts 38°
2026-04-21 21:04 -16.94739 -41.59871 37079 ft 481 kts 38°
2026-04-21 21:04 -16.89358 -41.55724 37078 ft 480 kts 38°
2026-04-21 21:05 -16.83975 -41.51587 37077 ft 480 kts 38°
2026-04-21 21:05 -16.78594 -41.47453 37075 ft 480 kts 38°
2026-04-21 21:06 -16.73215 -41.43317 37078 ft 480 kts 38°
2026-04-21 21:06 -16.67835 -41.39178 37069 ft 480 kts 38°
2026-04-21 21:07 -16.62514 -41.35061 37073 ft 479 kts 39°
2026-04-21 21:07 -16.57138 -41.30869 37073 ft 479 kts 39°
2026-04-21 21:08 -16.51834 -41.26745 37071 ft 479 kts 39°
2026-04-21 21:08 -16.46482 -41.22610 37068 ft 479 kts 39°
2026-04-21 21:09 -16.41138 -41.18486 37071 ft 478 kts 39°
2026-04-21 21:09 -16.35803 -41.14357 37075 ft 477 kts 39°
2026-04-21 21:10 -16.30477 -41.10232 37075 ft 477 kts 39°
2026-04-21 21:10 -16.25151 -41.06118 37071 ft 477 kts 39°
2026-04-21 21:11 -16.19830 -41.02021 37077 ft 476 kts 39°
2026-04-21 21:11 -16.14517 -40.97930 37077 ft 475 kts 39°
2026-04-21 21:12 -16.09217 -40.93841 37079 ft 474 kts 39°
2026-04-21 21:12 -16.03925 -40.89758 37081 ft 473 kts 39°
2026-04-21 21:13 -15.98633 -40.85685 37080 ft 473 kts 38°
2026-04-21 21:13 -15.93350 -40.81623 37079 ft 472 kts 38°
2026-04-21 21:14 -15.88109 -40.77590 37078 ft 472 kts 39°
2026-04-21 21:14 -15.82833 -40.73541 37074 ft 472 kts 38°
2026-04-21 21:15 -15.77559 -40.69497 37081 ft 471 kts 38°
2026-04-21 21:15 -15.72296 -40.65450 37081 ft 471 kts 38°
2026-04-21 21:16 -15.67032 -40.61412 37076 ft 470 kts 38°
2026-04-21 21:16 -15.61768 -40.57385 37075 ft 470 kts 38°
2026-04-21 21:17 -15.56505 -40.53365 37068 ft 470 kts 39°
2026-04-21 21:17 -15.51252 -40.49345 37069 ft 469 kts 39°
2026-04-21 21:18 -15.46005 -40.45330 37071 ft 468 kts 39°
2026-04-21 21:18 -15.40766 -40.41328 37066 ft 468 kts 39°
2026-04-21 21:19 -15.35528 -40.37327 37057 ft 467 kts 39°
2026-04-21 21:19 -15.30294 -40.33332 37058 ft 467 kts 39°
2026-04-21 21:20 -15.25069 -40.29343 37060 ft 466 kts 39°
2026-04-21 21:20 -15.19847 -40.25365 37059 ft 466 kts 39°
2026-04-21 21:21 -15.14628 -40.21393 37061 ft 465 kts 38°
2026-04-21 21:21 -15.09414 -40.17423 37054 ft 465 kts 38°
2026-04-21 21:22 -15.04211 -40.13463 37058 ft 464 kts 38°
2026-04-21 21:22 -14.99012 -40.09516 37053 ft 463 kts 38°
2026-04-21 21:23 -14.93813 -40.05569 37052 ft 463 kts 38°
2026-04-21 21:23 -14.88624 -40.01631 37051 ft 463 kts 38°
2026-04-21 21:24 -14.83469 -39.97721 37048 ft 462 kts 38°
2026-04-21 21:24 -14.78284 -39.93787 37046 ft 462 kts 38°
2026-04-21 21:25 -14.73108 -39.89861 37045 ft 462 kts 38°
2026-04-21 21:25 -14.67930 -39.85938 37043 ft 462 kts 37°
2026-04-21 21:26 -14.62753 -39.82016 37043 ft 461 kts 38°
2026-04-21 21:26 -14.57571 -39.78103 37038 ft 461 kts 37°
2026-04-21 21:27 -14.52391 -39.74185 37036 ft 462 kts 37°
2026-04-21 21:27 -14.47202 -39.70268 37027 ft 463 kts 37°
2026-04-21 21:28 -14.42000 -39.66340 37023 ft 464 kts 37°
2026-04-21 21:29 -14.34189 -39.60447 37031 ft 464 kts 37°
2026-04-21 21:29 -14.29029 -39.56453 37032 ft 463 kts 39°
2026-04-21 21:30 -14.24090 -39.52192 37035 ft 463 kts 41°
2026-04-21 21:30 -14.19217 -39.47855 37036 ft 463 kts 41°
2026-04-21 21:31 -14.14314 -39.43575 36987 ft 461 kts 41°
2026-04-21 21:31 -14.11840 -39.41447 35858 ft 465 kts 41°
2026-04-21 21:31 -14.09333 -39.39304 34430 ft 473 kts 41°
2026-04-21 21:31 -14.06784 -39.37126 32941 ft 479 kts 41°
2026-04-21 21:32 -14.04213 -39.34928 31470 ft 482 kts 41°
2026-04-21 21:32 -14.01636 -39.32718 30068 ft 482 kts 42°
2026-04-21 21:32 -13.99093 -39.30533 28380 ft 483 kts 41°
2026-04-21 21:32 -13.96490 -39.28299 27137 ft 476 kts 41°
2026-04-21 21:33 -13.93974 -39.26138 25961 ft 467 kts 41°
2026-04-21 21:33 -13.91532 -39.24036 24858 ft 460 kts 41°
2026-04-21 21:33 -13.89096 -39.21940 23778 ft 453 kts 41°
2026-04-21 21:33 -13.86697 -39.19875 22547 ft 447 kts 40°
2026-04-21 21:34 -13.84328 -39.17838 21400 ft 440 kts 40°
2026-04-21 21:34 -13.81992 -39.15832 20305 ft 437 kts 40°
2026-04-21 21:34 -13.79653 -39.13825 19608 ft 436 kts 40°
2026-04-21 21:34 -13.77358 -39.11859 19370 ft 423 kts 39°
2026-04-21 21:35 -13.75128 -39.09951 19147 ft 410 kts 39°
2026-04-21 21:35 -13.72972 -39.08107 18985 ft 397 kts 39°
2026-04-21 21:35 -13.71583 -39.06917 18982 ft 386 kts 39°
2026-04-21 21:35 -13.68902 -39.04627 18996 ft 366 kts 39°
2026-04-21 21:36 -13.67605 -39.03546 18924 ft 360 kts 38°
2026-04-21 21:36 -13.65664 -39.01955 18608 ft 355 kts 38°
2026-04-21 21:36 -13.63732 -39.00384 18239 ft 353 kts 37°
2026-04-21 21:36 -13.61813 -38.98822 17854 ft 350 kts 38°
2026-04-21 21:37 -13.59906 -38.97266 17438 ft 349 kts 38°
2026-04-21 21:37 -13.58016 -38.95719 17056 ft 346 kts 38°
2026-04-21 21:37 -13.56104 -38.94152 16186 ft 359 kts 37°
2026-04-21 21:37 -13.54114 -38.92518 15223 ft 373 kts 38°
2026-04-21 21:38 -13.52062 -38.90833 14607 ft 377 kts 37°
2026-04-21 21:38 -13.50049 -38.89181 14487 ft 364 kts 37°
2026-04-21 21:38 -13.48094 -38.87579 14252 ft 356 kts 38°
2026-04-21 21:38 -13.46173 -38.86004 13901 ft 352 kts 37°
2026-04-21 21:39 -13.44266 -38.84439 13415 ft 351 kts 38°
2026-04-21 21:39 -13.42321 -38.82845 12469 ft 363 kts 38°
2026-04-21 21:39 -13.40343 -38.81226 11847 ft 364 kts 39°
2026-04-21 21:39 -13.38346 -38.79590 10912 ft 372 kts 39°
2026-04-21 21:40 -13.36319 -38.77927 10243 ft 372 kts 40°
2026-04-21 21:40 -13.34309 -38.76276 9670 ft 368 kts 40°
2026-04-21 21:40 -13.32321 -38.74641 9005 ft 365 kts 40°
2026-04-21 21:40 -13.30370 -38.73035 8350 ft 363 kts 40°
2026-04-21 21:41 -13.28407 -38.71419 7682 ft 361 kts 40°
2026-04-21 21:41 -13.26454 -38.69814 7032 ft 359 kts 40°
2026-04-21 21:41 -13.24543 -38.68250 6956 ft 340 kts 40°
2026-04-21 21:41 -13.22751 -38.66791 6993 ft 319 kts 40°
2026-04-21 21:42 -13.21068 -38.65420 6984 ft 298 kts 42°
2026-04-21 21:42 -13.19496 -38.64141 6627 ft 283 kts 41°
2026-04-21 21:42 -13.17969 -38.62891 6036 ft 279 kts 42°
2026-04-21 21:42 -13.16465 -38.61653 5392 ft 276 kts 41°
2026-04-21 21:43 -13.14972 -38.60423 4749 ft 274 kts 42°
2026-04-21 21:43 -13.13485 -38.59205 4168 ft 273 kts 41°
2026-04-21 21:43 -13.12003 -38.57999 4041 ft 273 kts 41°
2026-04-21 21:43 -13.10512 -38.56788 3933 ft 273 kts 42°
2026-04-21 21:44 -13.09019 -38.55573 3989 ft 274 kts 41°
2026-04-21 21:44 -13.07545 -38.54375 3989 ft 263 kts 41°
2026-04-21 21:44 -13.06157 -38.53253 3991 ft 245 kts 42°
2026-04-21 21:44 -13.04807 -38.52268 3993 ft 236 kts 31°
2026-04-21 21:45 -13.03261 -38.51663 3867 ft 242 kts 14°
2026-04-21 21:45 -13.01605 -38.51404 3643 ft 239 kts 11°
2026-04-21 21:45 -12.99966 -38.51162 3425 ft 236 kts 11°
2026-04-21 21:45 -12.98346 -38.50918 3211 ft 234 kts 11°
2026-04-21 21:46 -12.96773 -38.50593 3046 ft 226 kts 24°
2026-04-21 21:46 -12.95451 -38.49844 2996 ft 211 kts 44°
2026-04-21 21:46 -12.94483 -38.48769 2853 ft 202 kts 62°
2026-04-21 21:46 -12.93912 -38.47482 2658 ft 196 kts 81°
2026-04-21 21:47 -12.93633 -38.46124 2436 ft 193 kts 82°
2026-04-21 21:47 -12.93371 -38.44822 2193 ft 181 kts 82°
2026-04-21 21:47 -12.93126 -38.43598 1965 ft 169 kts 83°
2026-04-21 21:47 -12.92897 -38.42455 1736 ft 160 kts 82°
2026-04-21 21:48 -12.92679 -38.41364 1528 ft 151 kts 84°
2026-04-21 21:48 -12.92473 -38.40334 1339 ft 144 kts 83°
2026-04-21 21:48 -12.92272 -38.39325 1151 ft 145 kts 82°
2026-04-21 21:48 -12.92068 -38.38304 969 ft 146 kts 83°
2026-04-21 21:49 -12.91865 -38.37290 792 ft 146 kts 83°
2026-04-21 21:49 -12.91657 -38.36271 618 ft 145 kts 83°
2026-04-21 21:49 -12.91446 -38.35258 387 ft 146 kts 82°
2026-04-21 21:49 -12.91247 -38.34243 225 ft 145 kts 81°
2026-04-21 21:50 -12.91052 -38.33234 52 ft 141 kts 81°
2026-04-21 21:50 -12.90880 -38.32365 52 ft 107 kts 78°
2026-04-21 21:50 -12.90746 -38.31702 47 ft 84 kts 78°
2026-04-21 21:50 -12.90643 -38.31192 49 ft 56 kts 78°
2026-04-21 21:51 -12.90601 -38.30974 49 ft 21 kts 84°
2026-04-21 21:51 -12.90674 -38.30904 54 ft 14 kts 171°
2026-04-21 21:51 -12.90753 -38.30937 53 ft 13 kts 245°
2026-04-21 21:51 -12.90769 -38.31020 55 ft 11 kts 259°
2026-04-21 21:52 -12.90784 -38.31096 55 ft 10 kts 259°
2026-04-21 21:52 -12.90800 -38.31177 52 ft 14 kts 258°
2026-04-21 21:52 -12.90823 -38.31293 55 ft 19 kts 258°
2026-04-21 21:52 -12.90856 -38.31461 54 ft 27 kts 258°
2026-04-21 21:53 -12.90897 -38.31658 54 ft 29 kts 259°
2026-04-21 21:53 -12.90934 -38.31848 53 ft 22 kts 259°
2026-04-21 21:53 -12.90966 -38.32006 53 ft 24 kts 258°
2026-04-21 21:53 -12.91001 -38.32177 49 ft 26 kts 258°
2026-04-21 21:54 -12.91039 -38.32362 53 ft 28 kts 258°
2026-04-21 21:54 -12.91072 -38.32531 53 ft 24 kts 258°
2026-04-21 21:54 -12.91105 -38.32699 51 ft 24 kts 259°
2026-04-21 21:54 -12.91135 -38.32846 49 ft 20 kts 258°
2026-04-21 21:55 -12.91159 -38.32968 43 ft 15 kts 258°
2026-04-21 21:55 -12.91177 -38.33060 44 ft 13 kts 258°
2026-04-21 21:55 -12.91223 -38.33125 44 ft 12 kts 187°
2026-04-21 21:55 -12.91307 -38.33107 44 ft 14 kts 168°
2026-04-21 21:56 -12.91407 -38.33085 44 ft 13 kts 168°
2026-04-21 21:56 -12.91490 -38.33095 44 ft 10 kts 201°
2026-04-21 21:56 -12.91544 -38.33140 44 ft 9 kts 247°
2026-04-21 21:56 -12.91557 -38.33200 44 ft 8 kts 257°
2026-04-21 21:57 -12.91566 -38.33251 44 ft 7 kts 259°
2026-04-21 21:57 -12.91596 -38.33278 44 ft 7 kts 188°
2026-04-21 21:57 -12.91641 -38.33276 44 ft 3 kts 176°
2026-04-21 21:57 -12.91653 -38.33275 44 ft 0 kts 177°